QPF
0.02 0.02 0.02 0.03 0.03 0.03 0.03 0.03 0.04 0.05 0.06 0.06 0.05 0.04 0.03 0.03 0.04 0.03 0.02 0.03 0.03 0.02 0.02 0.02 0.01 0.01 0.01 0.02 0.02 0.02 0.02 0.02 0.02 0.02 0.02 0.02 0.03 0.04
0.02 0.02 0.02 0.03 0.03 0.03 0.03 0.03 0.03 0.04 0.06 0.06 0.05 0.05 0.04 0.03 0.03 0.02 0.02 0.02 0.02 0.01 0.01 0.01 0.01 0.01 0.01 0.01 0.01 0.01 0.01 0.01 0.01 0.01 0.01 0.01 0.02 0.02
0.02 0.02 0.02 0.02 0.02 0.02 0.02 0.02 0.02 0.02 0.03 0.03 0.03 0.03 0.03 0.02 0.02 0.02 0.02 0.01 0.01 0.01 0.01 0.01 0.01 0.01 0.01 0.01 0.01 0.00 0.00 0.00 0.00 0.00 0.00 0.01 0.01 0.01
0.01 0.02 0.02 0.02 0.01 0.01 0.01 0.01 0.01 0.01 0.01 0.01 0.01 0.01 0.01 0.01 0.01 0.01 0.01 0.01 0.01 0.01 0.01 0.01 0.01 0.01 0.01 0.01 0.00 0.00 0.00 0.00 0.00 0.00 0.00 0.00 0.00 0.01
0.01 0.01 0.01 0.01 0.01 0.01 0.00 0.00 0.00 0.00 0.00 0.00 0.00 0.00 0.00 0.00 0.00 0.00 0.00 0.00 0.00 0.00 0.00 0.00 0.00 0.00 0.00 0.00 0.00 0.00 0.00 0.00 0.00 0.00 0.00 0.00 0.00 0.00
0.00 0.00 0.00 0.00 0.00 0.00 0.00 0.00 0.00 0.00 0.00 0.00 0.00 0.00 0.00 0.00 0.00 0.00 0.00 0.00 0.00 0.00 0.00 0.00 0.00 0.00 0.00 0.00 0.00 0.00 0.00 0.00 0.00 0.00 0.00 0.00 0.00 0.00
0.00 0.00 0.00 0.00 0.00 0.00 0.00 0.00 0.00 0.00 0.00 0.00 0.00 0.00 0.00 0.00 0.00 0.00 0.00 0.00 0.00 0.00 0.00 0.00 0.00 0.00 0.00 0.00 0.00 0.00 0.00 0.00 0.00 0.00 0.00 0.00 0.00 0.00
0.00 0.00 0.00 0.00 0.00 0.00 0.00 0.00 0.00 0.00 0.00 0.00 0.00 0.00 0.00 0.00 0.00 0.00 0.00 0.00 0.00 0.00 0.00 0.00 0.00 0.00 0.00 0.00 0.00 0.00 0.00 0.00 0.00 0.00 0.00 0.00 0.00 0.00
0.00 0.00 0.00 0.00 0.00 0.00 0.00 0.00 0.00 0.00 0.01 0.01 0.00 0.00 0.00 0.00 0.00 0.00 0.00 0.00 0.00 0.00 0.00 0.00 0.00 0.00 0.00 0.00 0.00 0.00 0.00 0.00 0.00 0.00 0.00 0.00 0.00 0.00
0.00 0.00 0.00 0.00 0.00 0.00 0.00 0.00 0.00 0.00 0.01 0.01 0.01 0.00 0.00 0.00 0.00 0.00 0.00 0.00 0.00 0.00 0.01 0.00 0.00 0.00 0.00 0.00 0.00 0.00 0.00 0.00 0.00 0.00 0.00 0.00 0.00 0.00
0.00 0.00 0.00 0.00 0.00 0.00 0.00 0.00 0.00 0.00 0.00 0.00 0.00 0.00 0.00 0.00 0.00 0.00 0.00 0.00 0.00 0.00 0.00 0.00 0.00 0.00 0.00 0.00 0.00 0.00 0.00 0.00 0.00 0.00 0.00 0.00 0.00 0.00
0.00 0.00 0.00 0.00 0.00 0.00 0.00 0.00 0.00 0.00 0.00 0.00 0.01 0.01 0.01 0.01 0.01 0.01 0.00 0.00 0.00 0.01 0.00 0.00 0.00 0.00 0.00 0.00 0.00 0.00 0.00 0.00 0.00 0.00 0.00 0.00 0.00 0.00
0.00 0.00 0.00 0.00 0.00 0.00 0.00 0.00 0.00 0.00 0.00 0.01 0.01 0.03 0.03 0.02 0.01 0.01 0.01 0.01 0.00 0.00 0.00 0.00 0.00 0.00 0.00 0.00 0.00 0.00 0.00 0.00 0.00 0.00 0.01 0.01 0.01 0.01
0.00 0.00 0.00 0.00 0.00 0.00 0.00 0.00 0.00 0.01 0.01 0.02 0.03 0.03 0.02 0.01 0.01 0.01 0.01 0.01 0.00 0.00 0.00 0.00 0.01 0.01 0.00 0.00 0.00 0.00 0.00 0.00 0.00 0.00 0.01 0.01 0.02 0.02
0.00 0.00 0.00 0.00 0.01 0.01 0.01 0.00 0.00 0.00 0.01 0.02 0.03 0.02 0.01 0.01 0.00 0.00 0.00 0.00 0.00 0.00 0.00 0.01 0.01 0.01 0.01 0.00 0.00 0.00 0.00 0.00 0.00 0.01 0.01 0.02 0.02 0.02
0.00 0.00 0.00 0.00 0.01 0.01 0.01 0.01 0.00 0.01 0.01 0.01 0.01 0.01 0.00 0.00 0.00 0.00 0.00 0.00 0.00 0.00 0.00 0.00 0.00 0.00 0.00 0.00 0.00 0.00 0.00 0.00 0.01 0.01 0.01 0.02 0.02 0.02
0.00 0.00 0.00 0.01 0.01 0.01 0.01 0.01 0.01 0.01 0.01 0.01 0.01 0.00 0.00 0.00 0.00 0.00 0.00 0.00 0.00 0.00 0.00 0.00 0.00 0.00 0.00 0.00 0.00 0.00 0.00 0.00 0.00 0.00 0.01 0.01 0.02 0.02
0.00 0.00 0.00 0.00 0.00 0.01 0.01 0.00 0.00 0.00 0.01 0.01 0.01 0.01 0.01 0.01 0.00 0.00 0.00 0.00 0.00 0.00 0.00 0.00 0.00 0.00 0.00 0.00 0.00 0.00 0.00 0.00 0.00 0.00 0.00 0.01 0.02 0.02
0.00 0.00 0.00 0.00 0.00 0.00 0.00 0.00 0.00 0.00 0.00 0.00 0.01 0.01 0.01 0.01 0.00 0.00 0.00 0.00 0.00 0.00 0.00 0.00 0.00 0.00 0.00 0.00 0.00 0.00 0.00 0.00 0.00 0.00 0.00 0.01 0.01 0.01
0.00 0.00 0.00 0.00 0.00 0.00 0.00 0.00 0.00 0.00 0.00 0.00 0.00 0.01 0.01 0.01 0.01 0.00 0.00 0.00 0.00 0.00 0.00 0.00 0.00 0.00 0.00 0.00 0.00 0.00 0.00 0.00 0.00 0.00 0.00 0.00 0.00 0.01
0.00 0.00 0.00 0.00 0.00 0.00 0.00 0.00 0.00 0.00 0.00 0.00 0.00 0.00 0.01 0.01 0.01 0.00 0.00 0.00 0.00 0.00 0.00 0.00 0.00 0.00 0.00 0.00 0.00 0.00 0.00 0.00 0.00 0.00 0.00 0.00 0.00 0.00
0.00 0.00 0.00 0.00 0.00 0.00 0.00 0.00 0.00 0.00 0.00 0.00 0.00 0.00 0.00 0.00 0.00 0.00 0.00 0.00 0.00 0.00 0.00 0.00 0.00 0.00 0.00 0.00 0.00 0.00 0.00 0.00 0.00 0.00 0.00 0.00 0.00 0.00
0.00 0.00 0.00 0.00 0.00 0.00 0.00 0.00 0.00 0.00 0.00 0.00 0.00 0.00 0.00 0.00 0.00 0.00 0.00 0.00 0.00 0.00 0.00 0.00 0.00 0.00 0.00 0.00 0.00 0.00 0.00 0.00 0.00 0.00 0.00 0.00 0.00 0.00
MSLP
1023.32 1023.38 1023.48 1023.59 1023.69 1023.77 1023.79 1023.74 1023.60 1023.37 1023.06 1022.69 1022.26 1021.81 1021.36 1020.94 1020.55 1020.22 1019.95 1019.73 1019.55 1019.41 1019.28 1019.16 1019.03 1018.89 1018.72 1018.55 1018.36 1018.17 1017.99 1017.83 1017.71 1017.60 1017.53 1017.48 1017.44 1017.41
1023.79 1023.82 1023.90 1023.99 1024.09 1024.17 1024.21 1024.18 1024.08 1023.89 1023.61 1023.25 1022.82 1022.34 1021.84 1021.33 1020.83 1020.37 1019.95 1019.58 1019.26 1018.98 1018.74 1018.53 1018.34 1018.16 1017.99 1017.83 1017.68 1017.54 1017.41 1017.32 1017.25 1017.21 1017.19 1017.19 1017.20 1017.19
1024.21 1024.21 1024.24 1024.30 1024.38 1024.46 1024.50 1024.50 1024.44 1024.29 1024.05 1023.73 1023.32 1022.84 1022.30 1021.74 1021.16 1020.59 1020.04 1019.53 1019.06 1018.65 1018.29 1017.97 1017.69 1017.45 1017.25 1017.07 1016.92 1016.81 1016.73 1016.68 1016.67 1016.69 1016.73 1016.79 1016.84 1016.87
1024.58 1024.53 1024.52 1024.53 1024.58 1024.63 1024.67 1024.68 1024.64 1024.53 1024.34 1024.06 1023.69 1023.23 1022.70 1022.12 1021.49 1020.85 1020.21 1019.59 1019.00 1018.47 1017.98 1017.55 1017.18 1016.86 1016.60 1016.38 1016.21 1016.10 1016.03 1016.01 1016.03 1016.09 1016.18 1016.28 1016.38 1016.46
1024.91 1024.80 1024.72 1024.69 1024.68 1024.70 1024.72 1024.72 1024.69 1024.60 1024.45 1024.21 1023.89 1023.47 1022.97 1022.39 1021.76 1021.09 1020.40 1019.72 1019.05 1018.42 1017.84 1017.32 1016.86 1016.45 1016.11 1015.83 1015.62 1015.47 1015.38 1015.36 1015.39 1015.46 1015.57 1015.71 1015.84 1015.95
1025.17 1025.00 1024.87 1024.77 1024.71 1024.68 1024.66 1024.63 1024.59 1024.51 1024.37 1024.17 1023.88 1023.50 1023.04 1022.51 1021.90 1021.24 1020.55 1019.85 1019.15 1018.48 1017.84 1017.25 1016.72 1016.24 1015.83 1015.48 1015.20 1015.00 1014.86 1014.79 1014.80 1014.85 1014.96 1015.09 1015.23 1015.36
1025.35 1025.14 1024.95 1024.80 1024.68 1024.59 1024.52 1024.45 1024.38 1024.27 1024.13 1023.93 1023.66 1023.32 1022.91 1022.41 1021.86 1021.25 1020.60 1019.92 1019.24 1018.57 1017.92 1017.31 1016.73 1016.21 1015.73 1015.32 1014.97 1014.69 1014.48 1014.35 1014.29 1014.30 1014.37 1014.47 1014.60 1014.72
1025.46 1025.20 1024.97 1024.77 1024.60 1024.46 1024.33 1024.21 1024.08 1023.93 1023.76 1023.54 1023.27 1022.95 1022.56 1022.11 1021.61 1021.07 1020.49 1019.88 1019.26 1018.63 1018.02 1017.42 1016.84 1016.29 1015.78 1015.31 1014.90 1014.54 1014.25 1014.04 1013.89 1013.82 1013.82 1013.87 1013.94 1014.03
1025.48 1025.20 1024.94 1024.71 1024.50 1024.30 1024.12 1023.93 1023.74 1023.54 1023.31 1023.05 1022.75 1022.42 1022.05 1021.64 1021.19 1020.71 1020.21 1019.69 1019.16 1018.62 1018.07 1017.52 1016.98 1016.44 1015.92 1015.42 1014.95 1014.52 1014.14 1013.83 1013.59 1013.43 1013.33 1013.29 1013.31 1013.34
1025.44 1025.15 1024.87 1024.61 1024.37 1024.13 1023.90 1023.66 1023.40 1023.12 1022.83 1022.51 1022.17 1021.81 1021.43 1021.04 1020.64 1020.22 1019.80 1019.37 1018.94 1018.49 1018.04 1017.57 1017.09 1016.59 1016.08 1015.57 1015.06 1014.57 1014.12 1013.72 1013.38 1013.11 1012.91 1012.78 1012.72 1012.69
1025.35 1025.05 1024.77 1024.50 1024.24 1023.97 1023.69 1023.40 1023.08 1022.74 1022.38 1022.00 1021.60 1021.20 1020.81 1020.42 1020.04 1019.67 1019.31 1018.97 1018.63 1018.28 1017.92 1017.54 1017.13 1016.69 1016.22 1015.72 1015.20 1014.67 1014.16 1013.68 1013.25 1012.88 1012.58 1012.36 1012.21 1012.12
1025.26 1024.95 1024.66 1024.38 1024.11 1023.82 1023.51 1023.18 1022.81 1022.41 1021.99 1021.55 1021.11 1020.66 1020.24 1019.84 1019.46 1019.12 1018.82 1018.53 1018.27 1018.00 1017.73 1017.44 1017.11 1016.74 1016.31 1015.84 1015.32 1014.78 1014.24 1013.70 1013.20 1012.75 1012.37 1012.07 1011.84 1011.67
1025.18 1024.87 1024.57 1024.29 1024.00 1023.70 1023.37 1023.00 1022.60 1022.17 1021.70 1021.22 1020.73 1020.25 1019.79 1019.37 1018.99 1018.66 1018.37 1018.13 1017.91 1017.71 1017.51 1017.29 1017.03 1016.72 1016.35 1015.92 1015.43 1014.90 1014.35 1013.78 1013.24 1012.74 1012.30 1011.93 1011.63 1011.42
1025.15 1024.82 1024.52 1024.23 1023.93 1023.62 1023.28 1022.90 1022.48 1022.02 1021.54 1021.02 1020.51 1020.00 1019.52 1019.07 1018.67 1018.33 1018.04 1017.80 1017.61 1017.44 1017.28 1017.10 1016.90 1016.65 1016.34 1015.97 1015.53 1015.03 1014.50 1013.94 1013.39 1012.86 1012.39 1011.98 1011.64 1011.37
1025.17 1024.84 1024.53 1024.23 1023.93 1023.62 1023.27 1022.89 1022.47 1022.01 1021.51 1020.99 1020.46 1019.93 1019.43 1018.96 1018.53 1018.16 1017.85 1017.59 1017.39 1017.22 1017.07 1016.93 1016.76 1016.56 1016.31 1016.00 1015.62 1015.18 1014.69 1014.17 1013.64 1013.12 1012.64 1012.21 1011.84 1011.54
1025.25 1024.93 1024.62 1024.32 1024.02 1023.71 1023.36 1022.99 1022.57 1022.12 1021.63 1021.12 1020.59 1020.05 1019.53 1019.03 1018.57 1018.16 1017.81 1017.51 1017.27 1017.07 1016.91 1016.77 1016.63 1016.46 1016.26 1016.01 1015.70 1015.34 1014.92 1014.46 1013.98 1013.51 1013.04 1012.62 1012.24 1011.91
1025.39 1025.09 1024.80 1024.51 1024.21 1023.91 1023.57 1023.21 1022.81 1022.38 1021.90 1021.40 1020.88 1020.34 1019.80 1019.28 1018.78 1018.31 1017.90 1017.55 1017.25 1017.01 1016.81 1016.65 1016.51 1016.37 1016.21 1016.02 1015.79 1015.50 1015.17 1014.79 1014.38 1013.96 1013.54 1013.14 1012.76 1012.42
1025.57 1025.31 1025.05 1024.78 1024.51 1024.22 1023.90 1023.56 1023.18 1022.76 1022.31 1021.82 1021.30 1020.76 1020.20 1019.65 1019.10 1018.58 1018.10 1017.68 1017.31 1017.01 1016.77 1016.58 1016.42 1016.29 1016.17 1016.03 1015.86 1015.66 1015.41 1015.12 1014.79 1014.44 1014.07 1013.70 1013.34 1012.99
1025.78 1025.57 1025.36 1025.13 1024.88 1024.61 1024.32 1023.99 1023.64 1023.24 1022.80 1022.32 1021.80 1021.25 1020.68 1020.08 1019.49 1018.92 1018.37 1017.87 1017.44 1017.07 1016.77 1016.54 1016.37 1016.23 1016.13 1016.03 1015.92 1015.78 1015.61 1015.40 1015.15 1014.86 1014.56 1014.23 1013.89 1013.55
1026.01 1025.87 1025.70 1025.52 1025.31 1025.06 1024.79 1024.48 1024.14 1023.75 1023.32 1022.84 1022.32 1021.76 1021.16 1020.53 1019.89 1019.26 1018.66 1018.09 1017.59 1017.16 1016.81 1016.54 1016.34 1016.20 1016.10 1016.02 1015.95 1015.86 1015.75 1015.60 1015.42 1015.20 1014.94 1014.66 1014.36 1014.04
1026.25 1026.17 1026.06 1025.91 1025.74 1025.52 1025.26 1024.96 1024.62 1024.24 1023.80 1023.32 1022.78 1022.20 1021.57 1020.92 1020.24 1019.57 1018.92 1018.31 1017.76 1017.28 1016.89 1016.58 1016.35 1016.19 1016.08 1016.01 1015.95 1015.89 1015.82 1015.71 1015.58 1015.40 1015.20 1014.96 1014.70 1014.42
1026.49 1026.46 1026.39 1026.28 1026.12 1025.92 1025.67 1025.37 1025.02 1024.63 1024.18 1023.68 1023.13 1022.53 1021.88 1021.20 1020.50 1019.81 1019.13 1018.49 1017.91 1017.41 1016.99 1016.65 1016.40 1016.22 1016.09 1016.01 1015.95 1015.90 1015.83 1015.75 1015.64 1015.50 1015.33 1015.13 1014.91 1014.67
1026.71 1026.71 1026.67 1026.58 1026.43 1026.23 1025.97 1025.66 1025.29 1024.88 1024.41 1023.89 1023.32 1022.70 1022.04 1021.35 1020.65 1019.95 1019.27 1018.63 1018.05 1017.54 1017.11 1016.77 1016.50 1016.30 1016.15 1016.05 1015.97 1015.90 1015.82 1015.74 1015.63 1015.50 1015.36 1015.20 1015.02 1014.82
Thickness
5584 5582 5579 5577 5576 5574 5572 5569 5565 5560 5557 5557 5557 5558 5557 5555 5553 5550 5548 5545 5542 5539 5537 5533 5530 5528 5525 5523 5520 5518 5516 5514 5512 5511 5510 5510 5510 5510
5568 5566 5563 5561 5558 5556 5553 5551 5548 5544 5539 5538 5538 5539 5539 5538 5537 5535 5533 5531 5528 5526 5523 5520 5517 5515 5512 5510 5508 5505 5503 5500 5498 5497 5495 5495 5495 5495
5552 5550 5547 5544 5541 5538 5535 5533 5529 5526 5522 5521 5522 5523 5523 5522 5521 5520 5519 5517 5515 5513 5511 5508 5506 5503 5501 5499 5496 5494 5492 5489 5487 5485 5484 5483 5482 5482
5536 5533 5531 5528 5524 5521 5518 5515 5512 5510 5507 5504 5505 5506 5507 5507 5506 5505 5505 5503 5502 5500 5499 5497 5495 5493 5491 5489 5487 5485 5482 5480 5478 5476 5475 5473 5472 5470
5521 5518 5516 5513 5509 5506 5502 5499 5496 5495 5492 5488 5488 5489 5490 5492 5491 5491 5491 5490 5489 5489 5488 5487 5486 5484 5483 5481 5479 5477 5475 5473 5471 5468 5466 5464 5462 5460
5508 5505 5503 5499 5496 5492 5489 5484 5482 5479 5477 5474 5474 5474 5475 5477 5477 5476 5476 5477 5478 5480 5479 5479 5478 5477 5476 5474 5473 5471 5468 5466 5464 5461 5459 5456 5454 5451
5495 5493 5490 5487 5484 5480 5477 5472 5470 5466 5464 5462 5461 5461 5462 5463 5464 5464 5464 5465 5468 5470 5469 5470 5471 5470 5469 5468 5467 5465 5462 5460 5458 5455 5452 5449 5446 5443
5483 5481 5478 5475 5472 5469 5466 5464 5462 5459 5455 5453 5452 5452 5453 5455 5456 5456 5454 5454 5455 5461 5460 5462 5464 5462 5463 5462 5461 5459 5457 5455 5452 5449 5446 5442 5439 5436
5473 5470 5468 5465 5461 5459 5457 5456 5455 5454 5453 5450 5448 5449 5450 5451 5451 5450 5450 5448 5449 5454 5454 5455 5457 5456 5458 5458 5457 5455 5453 5450 5447 5444 5440 5437 5434 5431
5465 5462 5460 5457 5455 5453 5451 5450 5450 5450 5450 5449 5448 5449 5450 5451 5450 5449 5448 5447 5449 5452 5451 5449 5451 5451 5454 5454 5453 5451 5448 5446 5442 5439 5436 5433 5430 5427
5460 5458 5456 5454 5453 5450 5448 5446 5447 5448 5450 5450 5450 5451 5452 5453 5452 5449 5447 5445 5445 5448 5449 5446 5447 5447 5448 5449 5449 5446 5444 5441 5439 5436 5433 5430 5427 5424
5456 5456 5455 5453 5452 5450 5447 5445 5444 5446 5448 5449 5451 5453 5454 5455 5454 5452 5449 5445 5443 5444 5447 5445 5443 5442 5442 5444 5444 5442 5440 5438 5435 5433 5430 5428 5424 5421
5452 5453 5454 5453 5452 5452 5450 5447 5446 5447 5447 5447 5449 5451 5454 5455 5455 5454 5452 5449 5445 5444 5447 5444 5442 5439 5436 5435 5438 5438 5436 5434 5432 5430 5427 5424 5420 5416
5449 5451 5452 5454 5454 5454 5453 5451 5451 5450 5448 5448 5448 5449 5450 5452 5454 5455 5454 5453 5451 5449 5449 5446 5442 5439 5435 5432 5431 5433 5433 5431 5428 5426 5423 5420 5416 5412
5449 5451 5453 5454 5455 5455 5454 5453 5452 5450 5448 5446 5446 5447 5449 5451 5453 5454 5455 5454 5453 5452 5450 5448 5444 5440 5435 5431 5429 5428 5428 5428 5426 5423 5420 5416 5411 5407
5450 5452 5454 5455 5454 5454 5453 5452 5450 5448 5446 5445 5446 5447 5449 5451 5451 5451 5451 5450 5449 5449 5451 5449 5446 5442 5437 5434 5429 5427 5425 5423 5422 5421 5418 5413 5409 5404
5446 5448 5449 5449 5448 5448 5448 5448 5447 5446 5445 5445 5445 5446 5447 5448 5449 5450 5449 5447 5445 5445 5445 5447 5446 5443 5440 5435 5431 5428 5425 5423 5421 5418 5415 5411 5407 5403
5445 5443 5443 5443 5442 5442 5441 5442 5442 5441 5442 5442 5443 5443 5444 5445 5446 5448 5447 5446 5445 5444 5444 5444 5443 5441 5438 5437 5433 5429 5426 5423 5420 5418 5414 5410 5407 5403
5442 5440 5439 5438 5438 5437 5437 5436 5436 5437 5438 5439 5440 5440 5442 5444 5445 5445 5446 5446 5445 5445 5445 5445 5443 5439 5436 5433 5434 5432 5427 5424 5421 5418 5414 5410 5407 5404
5438 5436 5435 5435 5434 5433 5432 5432 5432 5434 5435 5436 5437 5438 5439 5441 5443 5444 5444 5445 5445 5445 5446 5446 5444 5442 5438 5436 5434 5433 5431 5426 5422 5418 5415 5412 5409 5406
5434 5433 5432 5431 5430 5430 5429 5429 5429 5429 5430 5432 5433 5435 5437 5439 5441 5443 5444 5446 5446 5445 5445 5446 5448 5448 5444 5440 5436 5434 5433 5430 5426 5421 5417 5414 5410 5407
5432 5430 5429 5428 5427 5426 5426 5426 5426 5427 5428 5429 5430 5432 5435 5437 5439 5441 5443 5444 5445 5446 5447 5449 5451 5449 5446 5442 5439 5437 5435 5433 5430 5426 5422 5419 5413 5410
5430 5428 5427 5426 5425 5424 5424 5423 5423 5424 5425 5426 5428 5430 5433 5436 5439 5442 5444 5445 5446 5447 5448 5448 5449 5449 5447 5444 5442 5440 5439 5436 5432 5429 5427 5424 5420 5416